Location: Unspecified
(0.0000°N, 0.0000°E)
Time: 11:52:11
(UTC+00:00)

YUBILEINY - Pass Details

Date: 17 December 2017
Orbit: 1478 x 1508 km, 82.5° (Epoch: 25 June)

Event Time Altitude Azimuth Distance (km) Brightness Sun altitude
Rises 01:20:25 0° 158° (SSE) 4,620 ? -58.9°
Reaches altitude 10° 01:23:57 10° 146° (SE) 3,642 ? -58.4°
Enters shadow 01:26:19 17° 133° (SE) 3,101 ? -58.0°
